Regional Weather Roundup
Issued by NWS

Home | Current Version | Previous Version | Text Only | Print | Product List | Glossary Off
Versions: 1 2 3 4 5 6 7 8 9 10 11 12 13 14 15 16 17 18 19 20 21 22 23 24 25 26 27 28 29 30 31 32 33 34 35 36 37 38 39 40 41 42 43 44 45 46 47 48 49 50

000
ASUS45 KBOI 190910
RWRID

IDAHO REGIONAL WEATHER ROUNDUP
NATIONAL WEATHER SERVICE BOISE ID
300 AM MDT THU OCT 19 2017

NOTE: "FAIR" INDICATES FEW OR NO CLOUDS BELOW 12000 FEET
WITH NO SIGNIFICANT WEATHER AND/OR OBSTRUCTIONS TO VISIBILITY

IDZ012-014-191000-
SOUTHWEST IDAHO


CITY           SKY/WX    TMP DP  RH WIND       PRES   REMARKS
BOISE          CLEAR     52  29  41 SE13      29.85F
CALDWELL       CLEAR     45  28  51 CALM      29.84F
MOUNTAIN HOME  CLEAR     42  27  54 E12       29.89S
$$

IDZ016-017-191000-
SOUTHCENTRAL IDAHO


CITY           SKY/WX    TMP DP  RH WIND       PRES   REMARKS
BURLEY         CLEAR     50  18  28 S9        29.95F
JEROME         CLEAR     46  27  47 NE12      29.96F
TWIN FALLS     CLEAR     55  16  21 S14       29.94F
$$

IDZ019>023-191000-
SOUTHEAST IDAHO


CITY           SKY/WX    TMP DP  RH WIND       PRES   REMARKS
IDAHO FALLS    CLOUDY    34  28  79 N5        30.03S WCI  30
POCATELLO      CLOUDY    36  27  69 N8        30.00F WCI  30
REXBURG        CLOUDY    35  28  75 E5        30.04F WCI  31
$$

IDZ006-010-011-018-031-032-191000-
CENTRAL IDAHO MOUNTAINS


CITY           SKY/WX    TMP DP  RH WIND       PRES   REMARKS
MCCALL         CLEAR     33  29  85 CALM      29.90F
HAILEY         CLEAR     37  27  65 NW10      30.05S WCI  30
STANLEY          N/A     38  21  50 VRB5      30.03F WCI  34
SALMON         CLOUDY    36  28  73 CALM      29.91F
CHALLIS        CLEAR     34  24  67 CALM      29.98S
$$

IDZ002-004-006-007-026-191000-
NORTHERN IDAHO


CITY           SKY/WX    TMP DP  RH WIND       PRES   REMARKS
LEWISTON       CLOUDY    45  43  93 CALM      29.73S
LOWELL           N/A     42  41  96 S3        29.82S
COEUR D`ALENE  CLOUDY    57  40  52 S14G20    29.67F
MULLAN PASS    CLOUDY    45  26  47 SW12G20   29.78F
$$



USA.gov is the U.S. government's official web portal to all federal, state and local government web resources and services.